Weather in Verkhnedvinsk

Belarus     55˚46′59″N   27˚56′10″E
temp.,
°C
wind,
m/s
gust,
m/s
humid.,
%
clouds,
%
prec.,
mm/h
press.,
hPa
HPBL,
m
2 december, wed
wed200:00−4˚sse249586 0.0 1033131
03:00−2˚sse239191 0.1 1033294
06:00−3˚se2391100 0.0 1033343
09:00−3˚ese2390100 0.1 1033332
12:00−3˚ese3487100 0.1 1032572
15:00−3˚e238982 0.1 1031137
18:00−3˚e369393 0.1 1029357
21:00−3˚ese379692 0.1 1028332
3 december, thu
thu300:00−4˚ese379793 0.3 1027316
03:00−4˚se389692 0.5 1027305
06:00−4˚se489687 0.1 1025290
09:00−4˚se499586 0.3 1025347
12:00−3˚sse579391 0.0 1025436
15:00−2˚sse589195 0.1 1024569
18:00−2˚se5992100 0.1 1023584
21:00−1˚se51092100 0.1 1023565
4 december, fri
fri400:00se51191100 0.1 1023557
03:00se6119196 0.1 1022600
06:00se61290100 0.0 1021665
09:00+1˚se61289100 0.0 1021728
12:00+1˚se61389100 0.0 1021715
15:00+1˚se61291100 0.0 1020531
18:00+2˚se71393100 0.0 1020454
21:00+2˚se71494100 0.0 1020630
5 december, sat
sat500:00+2˚se71592100 0.0 1021680
03:00+1˚se81589100 0.0 1021659
06:00se71492100 0.0 1021675
09:00+1˚se71489100 0.0 1022686
12:00+1˚se61390100 0.0 1023611
15:00+2˚se71492100 0.0 1022551
18:00+2˚se61493100 0.0 1022563
21:00+2˚se61392100 0.0 1023635
6 december, sun
sun600:00+2˚se61392100 0.0 1024525
03:00+2˚se61492100 0.0 1024566
06:00+2˚se71489100 0.0 1024525
09:00+2˚se8148899 0.0 1024543
12:00+2˚sse7138896 0.0 1025670
15:00+2˚se8138898 0.0 1025582
18:00se7148697 0.0 1025556
21:00−1˚se7168466 0.0 1026565